Temperature
17 17 17 18 14 12 13 14 15 16 17 20 20 21 20 19 19 20 21 21 21 21 19 17 17 16 16 16 16 16 16 16 16 16 16 16 16 15 15 15 14 14 14 14 13 13 13 13 14
17 17 17 17 12 13 13 13 14 16 19 20 21 21 20 20 21 21 21 21 21 21 19 17 17 16 16 16 16 16 16 16 16 16 16 16 16 16 15 15 14 14 14 14 13 13 13 13 13
16 16 17 12 12 12 14 15 14 17 19 19 20 21 21 21 21 21 21 21 20 20 19 18 17 16 16 17 17 16 16 16 16 16 16 16 16 16 15 15 15 14 14 14 14 14 13 14 13
15 16 15 11 12 12 14 16 15 16 19 20 20 20 20 21 21 21 21 21 20 20 19 18 17 17 17 17 17 17 17 17 16 16 16 16 16 16 16 15 15 14 14 14 14 14 14 14 14
15 15 12 11 12 13 13 15 16 16 17 19 20 19 20 21 21 21 21 20 20 19 19 18 17 17 17 17 17 17 17 17 17 16 16 16 16 16 16 16 15 15 14 14 14 14 14 14 14
14 11 10 11 12 13 13 16 17 17 17 19 19 19 21 21 21 21 20 20 19 19 18 18 17 17 17 17 17 17 17 17 17 16 16 16 16 16 16 16 15 15 15 14 14 14 14 14 14
13 10 10 11 13 13 15 16 17 17 17 19 20 19 20 21 21 20 20 19 18 18 18 18 18 17 17 17 17 17 17 17 17 16 16 16 16 16 16 16 15 15 15 14 14 14 14 14 14
13 10 11 11 12 14 15 17 18 18 18 19 20 19 20 21 21 20 19 18 17 17 17 18 18 18 18 18 18 18 17 17 17 16 16 16 15 15 15 15 15 15 15 14 14 14 14 14 13
12 10 10 11 12 14 15 16 18 18 18 19 19 19 20 20 20 19 18 17 17 17 17 17 18 18 18 18 18 18 17 17 16 16 16 15 15 15 15 15 15 14 14 14 14 13 13 13 13
12 9 10 12 13 14 15 16 16 17 17 18 18 19 20 20 19 19 19 18 18 17 17 17 17 18 18 18 18 18 18 17 17 16 16 15 15 15 14 14 14 14 14 14 13 13 13 13 13
10 10 11 13 14 15 15 15 16 16 16 17 17 17 18 18 18 18 19 19 19 18 18 18 17 17 17 17 17 18 18 17 17 16 16 16 15 14 14 14 14 14 13 13 13 13 13 13 13
10 10 12 13 14 15 15 15 15 15 17 17 17 17 16 17 17 18 18 18 18 18 18 18 17 17 17 17 17 17 17 17 17 17 16 15 15 15 14 14 14 14 13 13 13 13 13 12 12
10 11 12 13 14 14 14 14 14 15 16 16 17 17 16 16 17 17 17 17 18 18 18 18 18 17 17 17 17 16 17 17 17 17 16 16 15 15 14 14 13 13 13 13 13 12 12 12 12
10 11 12 13 13 14 13 13 13 15 16 16 16 17 17 17 17 17 17 17 17 18 18 18 18 17 17 17 17 17 16 16 16 16 16 16 15 15 14 14 13 13 13 13 12 12 12 12 12
12 11 11 12 12 13 13 12 11 15 15 15 16 16 17 17 17 17 17 17 17 17 17 17 17 17 17 17 17 16 16 16 16 16 16 16 16 15 14 14 13 13 13 12 12 12 12 11 12
10 10 10 11 12 12 12 11 12 15 14 14 15 16 16 17 17 17 17 17 17 17 17 17 17 17 17 17 17 17 16 16 16 16 16 15 15 15 14 14 13 13 12 12 12 12 11 11 11
9 8 9 11 11 11 11 10 11 13 13 13 14 15 15 16 17 17 17 17 17 17 17 17 17 17 17 17 17 17 17 16 16 16 15 15 15 15 14 14 13 13 12 12 12 11 11 11 11
8 8 9 9 10 10 10 9 10 13 12 12 13 14 15 15 16 17 17 17 17 17 17 17 17 17 17 17 17 17 16 16 16 16 16 15 15 15 14 14 13 13 12 12 12 11 11 11 11
8 8 9 9 10 10 9 9 9 11 11 11 13 14 15 15 16 16 16 16 16 16 17 17 17 17 17 17 17 17 16 16 16 16 16 16 15 15 15 14 14 13 12 12 12 11 11 11 11
9 8 9 9 9 9 8 8 9 9 10 11 12 13 13 14 15 15 15 15 16 16 16 16 16 16 16 17 17 17 17 17 17 17 16 16 16 15 15 15 14 14 13 12 12 11 11 11 11
9 8 9 9 8 7 7 8 9 9 9 10 11 11 12 13 14 15 15 15 15 16 16 16 16 16 16 16 16 16 16 16 16 16 16 16 16 16 15 15 15 14 14 13 13 12 11 11 11
8 9 9 9 8 6 7 7 8 8 8 9 9 10 11 12 13 14 14 15 15 15 15 15 16 16 16 16 16 16 16 15 16 16 16 16 16 16 16 15 15 15 14 14 13 12 12 11 11
8 8 8 7 7 6 6 7 8 7 9 9 8 9 10 11 12 13 13 14 14 14 15 15 15 15 15 15 15 15 15 15 15 15 15 16 16 16 15 15 15 15 14 14 13 13 12 11 11
8 7 6 5 5 6 6 5 7 7 9 8 8 9 10 11 12 12 13 13 13 14 14 14 15 15 15 15 15 15 15 15 15 15 15 15 15 15 15 15 15 15 14 14 14 13 12 11 11
7 7 6 6 5 5 5 5 6 7 8 7 8 9 10 11 11 12 12 12 12 13 13 13 14 14 14 14 14 15 15 15 15 15 15 15 15 15 15 15 15 15 14 14 13 12 12 11 10
7 7 6 6 6 5 5 4 6 7 8 8 9 9 10 10 11 11 11 11 11 12 12 12 13 13 13 14 14 14 14 14 14 14 14 14 14 14 14 14 14 14 14 13 12 12 11 10 9
6 5 6 4 4 4 5 5 5 8 8 8 8 9 10 10 10 10 10 10 10 10 11 11 11 12 12 13 13 13 13 13 13 13 13 13 13 14 13 13 13 13 13 12 12 11 10 9 8
6 5 4 4 5 6 6 6 6 8 9 8 7 8 9 9 9 9 9 9 9 9 9 10 10 10 11 11 12 12 13 13 13 13 13 12 12 12 12 12 12 12 11 11 10 9 8 8 7
6 5 4 3 4 5 6 8 7 7 8 7 7 8 8 8 8 8 8 8 8 8 8 9 9 9 10 10 11 11 12 12 12 12 11 11 11 11 11 11 10 10 10 10 9 8 7 6 5
6 5 4 4 3 3 3 6 8 7 7 7 8 8 8 7 7 7 7 7 7 7 7 8 8 9 9 9 10 10 10 10 10 10 10 10 9 9 9 9 9 9 9 8 7 6 5 4 4
Wind_Speed
6 5 3 4 5 4 4 6 4 5 5 3 3 4 6 7 6 4 1 8 10 11 14 18 18 17 17 17 17 17 17 16 15 14 12 11 10 9 9 9 9 9 10 11 13 14 14 13 13
3 3 5 5 5 2 7 7 7 6 5 6 3 0 1 3 1 4 5 6 11 13 14 16 18 18 17 17 17 17 16 15 14 13 12 11 11 10 10 10 10 11 12 13 14 13 13 12 12
2 5 5 5 5 7 7 6 7 5 7 4 3 2 2 2 3 6 5 9 10 11 13 16 19 18 17 17 17 17 16 16 14 13 12 11 11 11 11 10 11 12 12 13 13 12 12 11 11
4 5 5 4 8 8 7 4 2 8 8 3 2 3 2 2 3 5 8 11 12 9 13 17 19 18 17 17 17 17 17 16 15 14 13 12 11 11 11 11 11 11 12 11 11 11 10 10 9
4 5 3 4 9 7 6 5 3 5 6 5 3 3 3 5 3 9 12 12 12 9 12 16 18 17 17 16 16 16 17 16 16 15 13 12 12 11 11 11 10 10 10 10 9 9 9 8 8
5 5 5 7 10 6 5 4 3 4 4 5 2 3 3 3 4 10 12 11 10 10 10 15 17 17 16 16 16 16 16 17 16 15 14 13 12 12 11 11 10 9 9 9 8 8 7 7 6
6 6 7 7 7 7 6 5 5 5 6 6 4 4 4 1 5 9 10 10 9 8 8 11 14 15 15 15 15 16 16 17 17 15 14 13 12 12 12 11 10 9 8 8 7 7 6 6 6
5 6 6 5 6 7 4 4 4 6 7 3 6 6 7 5 9 11 10 9 9 7 7 8 11 13 13 14 15 15 16 17 17 16 14 13 13 12 12 11 9 8 8 7 6 6 5 6 6
4 4 7 8 8 5 3 2 2 2 3 2 2 3 4 9 14 13 10 9 10 10 7 6 8 10 12 12 13 14 15 17 17 16 15 13 12 12 11 11 9 8 7 6 5 5 6 7 8
5 6 9 6 6 4 1 1 3 4 1 1 2 4 4 12 16 16 14 14 15 14 12 7 7 8 10 11 11 12 13 14 14 13 14 13 12 11 10 11 10 8 7 6 5 6 7 7 7
7 7 5 4 3 2 1 1 2 1 2 1 1 3 3 8 13 14 14 14 14 14 13 11 9 8 9 7 9 9 10 11 12 13 14 13 11 9 9 9 8 7 6 4 5 6 7 6 7
6 5 4 3 2 1 1 2 2 3 4 2 1 1 2 6 9 12 13 12 11 12 14 12 11 8 8 8 7 8 8 9 9 12 15 12 8 7 7 8 8 7 6 6 5 6 6 7 7
5 3 3 1 1 1 2 3 3 6 7 4 3 1 1 2 5 6 6 7 10 12 13 13 12 12 9 7 6 8 8 9 11 13 14 14 9 6 7 7 8 8 8 7 6 6 7 6 7
7 4 2 2 2 2 4 5 4 8 4 4 4 5 4 5 6 5 7 9 11 13 14 13 14 13 11 10 8 7 10 11 13 13 15 16 13 10 7 6 7 8 9 9 8 8 7 5 6
5 4 2 3 4 3 2 9 8 9 5 7 8 8 8 8 8 9 9 9 11 12 12 13 14 14 14 13 11 9 11 13 12 13 16 17 16 13 10 6 6 9 11 10 8 7 6 5 4
5 5 3 3 4 4 5 11 5 7 5 9 9 8 9 9 9 10 10 9 9 9 11 14 14 15 16 15 12 10 11 12 12 14 16 18 18 17 12 7 7 11 12 10 6 5 4 4 4
4 5 5 3 1 2 7 8 6 4 4 8 10 9 9 9 10 10 10 10 10 10 10 12 13 15 17 17 13 11 10 11 12 14 15 17 19 19 14 9 9 13 10 7 6 4 4 4 4
7 5 5 5 2 1 5 8 11 8 7 9 11 11 10 10 12 10 9 10 10 10 10 10 11 14 14 13 11 9 10 10 10 12 14 17 18 20 16 10 11 12 7 7 7 5 3 4 5
7 7 4 3 2 3 6 9 13 11 9 11 12 12 13 12 10 8 9 9 9 8 10 10 10 12 10 9 12 12 14 13 12 12 16 18 18 19 16 9 10 10 11 11 10 6 5 3 4
6 5 3 1 4 3 6 10 12 10 8 9 10 12 12 12 11 9 8 8 8 9 9 10 11 11 11 11 11 9 10 10 12 10 11 17 17 18 16 13 12 12 10 11 11 7 5 4 5
4 5 4 1 4 4 6 9 8 5 4 6 7 8 9 10 11 10 8 7 7 8 8 8 10 10 11 11 7 4 5 3 6 8 11 13 17 18 16 15 13 13 13 13 14 12 10 6 4
4 3 4 3 3 4 5 6 9 5 8 5 7 7 7 7 6 7 7 7 6 6 6 7 8 8 9 9 8 10 11 12 12 12 13 13 15 16 17 15 14 14 13 13 14 12 8 8 6
5 5 5 4 4 2 1 2 9 5 5 6 8 9 8 8 7 8 8 7 6 6 5 4 5 6 7 8 10 11 13 12 9 8 10 11 11 13 14 14 13 14 12 13 13 12 10 7 7
8 6 6 5 4 2 3 5 7 3 3 7 8 9 9 9 10 9 9 9 9 8 7 6 5 5 5 6 8 11 13 12 10 9 11 11 9 10 12 12 13 13 11 12 12 12 12 8 7
5 5 2 3 2 5 2 3 9 6 5 5 6 7 8 8 10 11 12 12 11 11 10 9 8 7 6 6 7 9 12 12 13 13 13 11 9 10 14 13 13 12 10 10 9 9 9 8 8
4 6 6 4 3 4 1 6 8 6 5 3 2 3 7 9 9 10 10 9 9 10 10 9 9 9 8 7 7 8 9 8 9 11 10 11 11 10 10 12 11 10 10 10 9 8 8 7 8
6 4 4 5 2 3 5 7 9 3 1 3 5 8 10 10 10 10 10 10 10 10 10 9 9 10 9 8 8 7 7 7 8 8 8 7 6 5 8 9 10 10 11 11 11 9 9 9 9
5 8 5 5 4 4 6 5 5 3 2 6 8 9 10 10 10 11 10 10 10 10 9 9 8 8 9 8 7 5 5 5 5 4 5 5 6 7 10 10 11 11 12 12 12 11 11 11 9
5 4 5 4 3 4 3 6 5 6 2 5 8 9 9 10 10 10 11 11 10 10 9 8 9 8 8 7 6 4 3 1 1 3 4 6 7 10 11 12 13 13 13 13 13 12 13 12 10
5 6 6 5 4 4 3 7 5 5 3 5 8 9 9 8 9 9 10 11 10 10 10 9 9 8 7 5 4 3 2 2 3 4 6 8 9 10 12 13 13 14 14 13 14 14 12 12 11
Wind_Direction
4 9 64 57 55 53 248 248 240 271 256 257 242 202 175 173 178 208 99 138 135 142 158 158 158 157 156 152 146 142 140 137 134 131 129 127 126 123 117 116 116 121 123 118 112 106 102 101 101
12 38 57 64 106 208 256 243 237 239 268 317 314 72 174 212 183 134 143 162 145 146 154 156 158 158 155 150 147 146 144 142 140 137 134 133 132 129 120 113 107 106 111 109 106 103 104 104 104
71 49 89 96 156 194 231 231 226 275 286 267 293 299 236 256 174 175 178 157 142 144 150 156 156 157 154 152 151 151 150 148 145 142 140 139 138 134 126 118 110 107 108 109 108 106 107 107 107
91 60 64 129 217 217 217 233 236 323 337 338 313 294 276 351 200 174 145 148 142 139 148 157 156 157 157 156 157 158 157 153 151 148 146 145 143 139 131 125 118 115 114 114 114 114 114 113 112
66 95 123 215 234 237 237 252 264 313 313 325 333 264 268 352 76 128 139 148 146 139 147 157 158 160 161 163 164 165 163 159 157 155 153 151 148 143 138 133 129 126 125 125 124 123 122 120 115
77 94 150 217 238 246 249 231 257 277 276 293 253 232 277 27 112 139 142 145 145 144 147 159 161 163 166 170 172 172 169 165 162 162 159 156 152 148 147 146 143 142 139 136 132 131 128 124 115
128 135 183 206 235 251 245 200 211 244 264 253 202 203 280 131 138 136 133 133 136 140 146 156 161 165 170 174 177 179 175 170 168 168 165 160 156 154 155 155 155 152 147 142 138 136 131 120 107
146 138 178 204 211 244 237 202 208 203 247 237 168 187 240 193 144 131 127 131 140 147 153 157 159 165 171 178 182 185 181 176 174 174 170 165 163 163 164 165 166 161 155 149 145 140 128 108 96
110 129 195 201 194 231 230 222 265 274 242 268 196 237 276 137 144 142 144 154 166 173 174 165 164 169 172 177 184 186 184 181 179 179 175 169 169 171 172 175 178 173 164 159 154 142 117 96 89
139 183 210 203 189 192 200 203 315 358 337 330 14 6 69 141 159 163 169 176 183 189 190 183 178 175 174 180 182 182 182 184 183 180 175 171 173 176 178 184 188 183 173 167 160 137 113 104 98
172 195 206 225 208 186 171 304 334 360 271 229 328 330 116 157 172 180 184 187 190 192 195 196 190 183 179 180 177 179 180 181 182 180 177 174 174 178 177 182 191 188 174 156 140 116 114 115 116
177 217 205 212 171 168 203 292 312 219 228 196 268 311 136 176 190 195 197 198 195 197 201 200 196 191 189 186 182 182 182 181 182 184 181 175 172 176 176 178 181 177 168 154 139 127 123 118 120
190 214 201 241 341 232 211 238 261 253 253 288 320 26 148 220 232 229 219 213 208 210 208 206 201 199 194 191 190 191 192 192 190 189 189 185 180 180 183 185 184 182 175 165 152 141 134 126 123
197 199 263 283 269 253 241 259 233 257 252 270 286 283 267 252 245 240 219 210 212 217 216 210 209 205 199 201 200 196 198 198 196 197 195 193 190 187 185 186 186 186 183 176 165 154 144 135 130
146 154 250 243 213 235 240 272 234 249 260 270 268 268 269 256 244 239 233 219 214 216 217 214 213 207 206 207 205 204 202 201 204 205 201 198 196 193 191 189 189 191 184 168 152 139 132 127 124
118 142 215 256 201 210 192 261 264 260 260 270 270 265 265 265 250 244 243 240 231 221 216 217 215 210 211 211 208 208 204 204 209 208 206 204 202 198 194 193 195 189 177 164 151 143 131 137 140
135 171 199 265 236 210 209 258 275 300 281 277 279 274 266 269 267 253 244 240 239 229 223 218 215 211 212 212 210 209 205 207 210 208 209 208 205 200 197 197 192 181 173 168 164 153 146 154 156
172 164 180 220 303 287 253 269 282 284 274 273 279 279 274 267 264 255 244 239 239 235 229 226 220 218 214 211 210 210 210 213 211 211 213 208 206 201 198 196 186 178 174 173 168 153 135 141 148
152 153 179 228 327 318 273 279 281 276 267 265 268 272 274 273 268 258 244 242 240 236 230 228 224 223 213 204 208 213 217 217 215 216 214 209 205 199 197 194 184 182 186 184 172 149 144 139 143
128 134 164 293 0 351 304 283 273 266 252 252 263 274 281 286 289 281 266 251 238 234 228 227 226 226 216 211 209 210 213 218 218 216 212 210 205 200 198 194 191 189 185 178 177 160 149 149 168
150 155 169 213 355 32 340 305 295 317 321 306 299 292 294 290 294 300 299 280 263 251 239 233 228 228 224 217 208 195 191 201 206 212 215 211 206 202 200 197 192 190 187 189 187 179 165 164 183
185 173 147 118 53 335 26 320 297 323 328 344 349 347 335 325 315 314 317 313 297 276 264 246 238 234 230 217 206 203 209 216 216 215 217 211 205 203 201 197 195 192 192 190 189 184 175 156 167
137 105 101 99 107 341 344 216 286 335 349 347 345 350 353 354 355 353 348 333 327 321 310 288 265 251 242 227 214 212 219 224 221 213 213 211 207 204 201 196 194 193 194 191 184 181 180 173 167
121 85 71 59 70 276 223 193 280 287 285 314 330 345 355 1 8 8 3 1 354 349 347 338 317 288 267 244 231 222 223 223 217 213 214 213 208 204 201 195 195 193 191 189 185 181 180 177 164
112 108 54 359 0 253 191 210 253 267 277 279 306 335 352 2 6 3 0 356 350 345 343 339 331 312 298 269 247 235 232 226 221 218 218 214 210 209 204 196 194 190 186 177 168 167 168 161 154
148 141 162 197 235 285 212 238 256 266 291 294 294 334 355 358 356 352 345 340 335 331 332 331 326 315 309 295 273 256 244 235 231 224 218 215 216 213 198 191 185 176 165 160 153 149 145 139 134
126 124 135 122 119 284 268 275 299 268 290 351 349 355 353 346 345 343 339 336 329 323 318 316 313 311 311 305 293 277 259 242 235 226 218 214 204 179 167 165 158 152 149 146 143 139 132 127 120
129 136 110 129 165 265 292 271 251 259 307 342 346 341 334 338 341 340 338 333 327 317 310 312 310 304 304 307 300 289 275 262 245 218 203 182 159 146 145 144 143 140 138 137 130 127 125 119 116
118 110 108 112 150 173 282 281 224 207 244 320 317 317 325 333 335 334 331 329 325 322 321 321 320 319 320 318 317 312 302 286 195 172 161 149 139 140 142 140 136 134 132 130 125 123 122 118 113
151 157 145 152 194 175 205 272 273 219 257 293 305 316 326 333 336 336 334 334 336 335 334 334 331 331 328 331 342 350 19 73 101 116 124 126 128 130 130 130 128 127 125 123 122 120 118 117 115
Height
1517 1519 1520 1522 1526 1537 1537 1528 1521 1516 1512 1509 1508 1507 1507 1509 1513 1515 1508 1506 1510 1513 1515 1518 1522 1525 1528 1531 1533 1535 1537 1538 1539 1540 1541 1541 1541 1541 1542 1543 1543 1544 1545 1546 1548 1549 1549 1550 1550
1516 1518 1521 1521 1532 1541 1536 1523 1519 1514 1510 1508 1507 1506 1505 1505 1506 1506 1505 1507 1511 1514 1516 1519 1522 1526 1528 1531 1533 1535 1537 1538 1539 1540 1540 1541 1541 1541 1542 1543 1544 1545 1546 1547 1549 1550 1550 1551 1551
1514 1517 1520 1523 1532 1535 1527 1516 1514 1511 1509 1508 1507 1506 1506 1505 1505 1505 1506 1508 1511 1514 1517 1520 1523 1526 1529 1531 1533 1535 1536 1538 1539 1540 1540 1541 1541 1541 1542 1543 1544 1546 1547 1548 1549 1550 1551 1551 1552
1512 1516 1519 1526 1527 1522 1516 1511 1511 1510 1508 1508 1508 1506 1505 1506 1506 1506 1508 1509 1512 1515 1517 1520 1523 1526 1529 1531 1533 1535 1536 1537 1539 1540 1540 1541 1541 1542 1543 1544 1545 1546 1548 1549 1550 1551 1552 1552 1553
1510 1514 1521 1526 1522 1515 1511 1510 1510 1510 1509 1508 1509 1507 1505 1506 1506 1507 1509 1511 1513 1515 1518 1521 1524 1526 1529 1531 1533 1535 1536 1537 1539 1540 1541 1542 1542 1543 1544 1544 1546 1547 1548 1550 1551 1552 1552 1553 1554
1509 1512 1524 1525 1517 1511 1509 1508 1509 1508 1508 1508 1508 1507 1505 1506 1507 1508 1510 1512 1514 1516 1519 1521 1524 1527 1529 1531 1533 1535 1536 1537 1539 1540 1541 1542 1543 1544 1544 1545 1546 1548 1549 1550 1551 1552 1553 1554 1554
1507 1512 1517 1517 1513 1511 1506 1506 1507 1507 1507 1507 1507 1507 1504 1505 1507 1509 1511 1513 1515 1517 1519 1522 1524 1526 1529 1531 1532 1534 1536 1537 1539 1540 1541 1543 1544 1544 1545 1546 1547 1548 1550 1551 1552 1553 1554 1554 1555
1503 1509 1513 1514 1512 1508 1503 1503 1503 1504 1504 1505 1506 1505 1504 1505 1506 1508 1511 1513 1515 1517 1519 1522 1524 1526 1528 1530 1532 1534 1535 1537 1538 1540 1541 1543 1544 1545 1546 1547 1548 1549 1550 1551 1552 1553 1554 1555 1556
1502 1510 1511 1509 1508 1504 1501 1502 1502 1502 1502 1503 1503 1504 1504 1504 1505 1507 1510 1512 1514 1517 1519 1521 1523 1525 1528 1529 1531 1533 1534 1536 1537 1539 1541 1542 1543 1545 1546 1547 1548 1549 1550 1552 1553 1553 1554 1555 1556
1500 1506 1504 1500 1500 1500 1500 1500 1500 1500 1501 1501 1502 1502 1502 1503 1504 1505 1507 1510 1512 1515 1517 1520 1522 1524 1526 1528 1530 1532 1533 1535 1536 1538 1539 1541 1543 1544 1545 1547 1548 1549 1550 1551 1552 1553 1554 1555 1556
1497 1500 1498 1497 1498 1498 1499 1500 1500 1500 1501 1501 1501 1501 1501 1502 1504 1505 1507 1509 1511 1514 1516 1518 1521 1523 1525 1526 1528 1530 1532 1533 1534 1536 1538 1540 1541 1543 1544 1546 1547 1548 1549 1551 1552 1553 1554 1555 1555
1495 1495 1495 1496 1497 1498 1498 1499 1499 1499 1500 1501 1501 1501 1502 1502 1504 1505 1507 1509 1511 1513 1515 1517 1519 1521 1523 1524 1526 1528 1529 1531 1533 1534 1536 1538 1539 1541 1542 1544 1546 1547 1548 1549 1551 1552 1553 1554 1554
1493 1494 1494 1495 1496 1496 1497 1498 1498 1497 1498 1499 1500 1501 1502 1503 1504 1505 1507 1508 1510 1511 1513 1515 1517 1519 1520 1522 1524 1525 1527 1529 1531 1532 1534 1535 1537 1539 1540 1542 1544 1545 1547 1548 1549 1551 1552 1553 1553
1491 1493 1494 1494 1495 1495 1496 1495 1496 1493 1496 1497 1498 1499 1501 1503 1504 1504 1505 1506 1507 1509 1511 1512 1514 1516 1518 1519 1521 1522 1524 1526 1528 1529 1531 1532 1534 1536 1538 1540 1541 1543 1545 1546 1547 1549 1550 1551 1552
1489 1493 1494 1493 1493 1494 1495 1494 1492 1491 1493 1493 1494 1496 1497 1499 1501 1502 1503 1504 1505 1507 1508 1509 1511 1513 1514 1516 1517 1519 1521 1523 1524 1526 1528 1529 1531 1533 1535 1537 1539 1541 1542 1544 1545 1546 1547 1549 1550
1489 1494 1497 1493 1492 1492 1498 1495 1490 1489 1489 1489 1490 1491 1492 1494 1496 1498 1499 1501 1502 1503 1504 1506 1507 1508 1510 1511 1513 1515 1517 1519 1521 1522 1524 1526 1527 1529 1531 1533 1535 1538 1539 1541 1542 1544 1545 1546 1547
1492 1497 1497 1494 1491 1491 1494 1492 1488 1486 1486 1486 1485 1486 1487 1488 1490 1492 1494 1495 1497 1498 1499 1500 1502 1503 1505 1507 1508 1510 1512 1514 1516 1518 1520 1521 1523 1525 1526 1528 1531 1534 1536 1537 1539 1540 1542 1543 1544
1494 1495 1496 1495 1492 1492 1493 1491 1486 1484 1484 1483 1481 1481 1481 1482 1483 1486 1488 1489 1490 1491 1493 1494 1496 1498 1499 1501 1503 1504 1506 1508 1510 1512 1514 1516 1518 1520 1522 1524 1527 1529 1531 1533 1534 1536 1538 1539 1541
1489 1493 1495 1494 1492 1492 1491 1490 1483 1480 1480 1479 1477 1476 1475 1476 1478 1480 1481 1482 1483 1484 1486 1487 1489 1491 1493 1494 1496 1497 1498 1501 1503 1506 1508 1511 1513 1515 1517 1519 1521 1523 1525 1527 1530 1532 1533 1535 1537
1488 1492 1494 1494 1492 1492 1493 1488 1479 1474 1474 1473 1472 1472 1471 1471 1471 1472 1473 1473 1475 1476 1478 1480 1482 1484 1486 1487 1489 1490 1492 1494 1496 1499 1502 1505 1507 1509 1511 1513 1515 1517 1519 1522 1524 1526 1528 1530 1532
1488 1492 1493 1494 1494 1495 1495 1485 1478 1473 1472 1471 1470 1469 1468 1467 1467 1466 1466 1467 1468 1469 1471 1473 1475 1478 1480 1481 1483 1484 1485 1486 1489 1491 1494 1497 1500 1502 1504 1506 1509 1511 1513 1514 1517 1519 1522 1524 1526
1489 1489 1491 1494 1498 1502 1501 1500 1481 1477 1474 1471 1470 1468 1466 1465 1464 1464 1463 1463 1463 1464 1466 1467 1469 1471 1473 1475 1475 1476 1477 1478 1480 1483 1486 1489 1492 1495 1497 1499 1502 1504 1506 1507 1510 1512 1515 1517 1519
1488 1490 1493 1497 1500 1505 1504 1503 1486 1480 1474 1472 1470 1468 1466 1465 1464 1463 1462 1462 1462 1462 1462 1463 1464 1465 1467 1468 1469 1470 1470 1472 1474 1476 1478 1481 1484 1486 1489 1492 1494 1496 1498 1501 1503 1505 1508 1510 1512
1488 1493 1499 1504 1506 1507 1504 1507 1492 1482 1476 1474 1471 1469 1467 1465 1464 1463 1462 1461 1461 1460 1460 1460 1460 1461 1461 1462 1462 1463 1464 1465 1466 1468 1470 1472 1475 1477 1480 1483 1486 1488 1491 1493 1496 1498 1501 1503 1505
1488 1496 1504 1507 1513 1509 1505 1507 1493 1478 1475 1474 1472 1469 1467 1465 1464 1462 1461 1460 1459 1458 1458 1457 1457 1457 1457 1456 1456 1457 1457 1458 1459 1460 1462 1464 1465 1468 1471 1474 1477 1480 1483 1486 1489 1491 1494 1496 1499
1489 1493 1503 1505 1506 1508 1506 1505 1486 1476 1473 1472 1471 1469 1467 1465 1464 1462 1460 1458 1457 1455 1454 1453 1453 1452 1452 1451 1451 1451 1451 1451 1452 1453 1454 1456 1457 1460 1463 1466 1469 1472 1475 1478 1482 1484 1487 1490 1492
1491 1496 1498 1508 1513 1513 1503 1496 1483 1473 1472 1471 1470 1468 1466 1464 1463 1461 1458 1456 1454 1452 1451 1449 1448 1447 1446 1445 1445 1445 1445 1445 1445 1446 1447 1448 1450 1452 1454 1458 1461 1464 1468 1471 1475 1478 1481 1484 1486
1488 1495 1503 1510 1508 1501 1496 1494 1485 1474 1472 1471 1469 1467 1465 1463 1461 1458 1456 1453 1450 1448 1446 1444 1443 1442 1441 1440 1439 1438 1438 1438 1438 1439 1440 1441 1442 1445 1447 1450 1453 1457 1461 1465 1468 1472 1475 1478 1480
1492 1496 1501 1509 1509 1509 1498 1485 1474 1473 1471 1471 1469 1467 1464 1462 1459 1456 1453 1450 1447 1444 1442 1439 1438 1436 1435 1434 1433 1433 1432 1432 1432 1432 1433 1435 1436 1439 1442 1445 1448 1452 1456 1460 1463 1467 1470 1473 1476
1487 1492 1499 1506 1511 1513 1515 1493 1469 1470 1470 1469 1467 1465 1463 1460 1457 1454 1450 1446 1443 1440 1437 1435 1433 1431 1429 1429 1428 1427 1426 1426 1426 1427 1429 1430 1432 1435 1438 1441 1445 1448 1452 1455 1459 1462 1466 1470 1473